Home   Weather   Astana   Past weeks

Flag for Kazakhstan Past Weather in Astana, Kazakhstan — Yesterday and Last 2 Weeks

Now
21 °F

Snow. Mostly cloudy.


Feels Like: 6 °F
Forecast: -3 / 20 °F
Wind: 20 mph from South

Location: Astana

Current Time: Dec 9, 2016 at 4:09:21 am

Latest Report: Dec 9, 2016 at 3:30 am


Visibility: 1 mi

Pressure: 29.65 "Hg

Humidity: 86%

Dew Point: 18 °F

Location of AstanaLocation

Past Weather in Astana — Graph

°F

Astana Temperature Yesterday

Maximum temperature yesterday: 23 °F (at 10:30 pm)
Minimum temperature yesterday: 7 °F (at 12:00 am)
Average temperature yesterday: 17 °F

High & Low Weather Summary for the Past Weeks

 TemperatureHumidityPressure
High36 °F (Dec 4, 3:00 am)100% (Nov 24, 8:00 am)30.36 "Hg (Nov 24, 8:00 am)
Low-2 °F (Dec 7, 12:00 am)59% (Dec 1, 1:30 pm)29.59 "Hg (Dec 4, 2:00 am)
Average18 °F80%30.10 "Hg
* Reported Nov 24 2:00 am — Dec 9 2:30 am, Astana, Weather by CustomWeather, © 2016

Note: Actual official high and low records may vary slightly from our data, if they occured in-between our weather recording intervals... More about our weather records

Advertising

Astana Weather History for the Previous 24 Hours

Scroll right to see more
 ConditionsComfort  
Time TempWeatherWind HumidityBarometerVisibility
2:30 am
Fri, Dec 9
19 °FSnow. Mostly cloudy.17 mph86%29.71 "Hg1 mi
2:00 am19 °FSnow. Mostly cloudy.10 mph79%29.74 "Hg1 mi
1:30 am19 °FClear.13 mph79%29.74 "Hg10 mi
1:00 am19 °FClear.13 mph79%29.77 "Hg10 mi
12:30 am19 °FClear.13 mph79%29.80 "Hg10 mi
12:00 am18 °FClear.13 mph86%29.83 "Hg10 mi
11:30 pm
Thu, Dec 8
19 °FClear.17 mph79%29.83 "Hg10 mi
11:00 pm21 °FClear.17 mph80%29.86 "Hg10 mi
10:30 pm23 °FClear.17 mph74%29.86 "Hg10 mi
10:00 pm21 °FClear.15 mph80%29.89 "Hg10 mi
9:30 pm21 °FClear.15 mph80%29.89 "Hg10 mi
9:00 pm21 °FClear.17 mph80%29.92 "Hg10 mi
8:30 pm19 °FClear.20 mph86%29.92 "Hg10 mi
8:00 pm19 °FClear.17 mph79%29.92 "Hg10 mi
7:30 pm19 °FClear.15 mph79%29.95 "Hg10 mi
7:00 pm18 °FClear.15 mph86%29.95 "Hg10 mi
6:30 pm18 °FClear.15 mph86%29.98 "Hg10 mi
6:00 pm18 °FSunny.15 mph86%29.98 "Hg10 mi
5:30 pm19 °FBroken clouds.15 mph79%29.98 "HgN/A
5:00 pm19 °FBroken clouds.15 mph79%29.98 "HgN/A
4:30 pm21 °FBroken clouds.17 mph80%30.01 "HgN/A
4:00 pm21 °FBroken clouds.15 mph80%30.01 "HgN/A
3:30 pm21 °FBroken clouds.17 mph80%30.01 "HgN/A
3:00 pm21 °FBroken clouds.20 mph80%30.04 "HgN/A
2:30 pm19 °FBroken clouds.17 mph79%30.04 "HgN/A
2:00 pm21 °FBroken clouds.17 mph80%30.04 "HgN/A
1:30 pm21 °FBroken clouds.20 mph80%30.07 "HgN/A
1:00 pm19 °FBroken clouds.15 mph86%30.07 "HgN/A
12:30 pm19 °FBroken clouds.15 mph79%30.07 "HgN/A
12:00 pm18 °FBroken clouds.17 mph79%30.07 "HgN/A
11:30 am16 °FSunny.20 mph86%30.09 "Hg10 mi
11:00 am16 °FSunny.17 mph86%30.09 "Hg10 mi
10:30 am12 °FSunny.15 mph85%30.09 "Hg10 mi
10:00 am14 °FClear.15 mph79%30.09 "Hg10 mi
9:30 am14 °FClear.13 mph79%30.09 "Hg10 mi
8:30 am14 °FPassing clouds.13 mph79%30.07 "HgN/A
8:00 am12 °FPassing clouds.13 mph85%30.07 "HgN/A
7:30 am12 °FPassing clouds.13 mph85%30.07 "HgN/A
7:00 am14 °FPassing clouds.13 mph79%30.07 "HgN/A
6:30 am14 °FClear.15 mph79%30.07 "Hg10 mi
6:00 am14 °FClear.10 mph79%30.07 "Hg10 mi
5:30 am12 °FPassing clouds.10 mph85%30.07 "HgN/A
5:00 am12 °FPassing clouds.10 mph85%30.07 "HgN/A
4:30 am12 °FPassing clouds.8 mph85%30.07 "HgN/A
4:00 am14 °FLight snow. Passing clouds.10 mph79%30.07 "HgN/A
Weather by CustomWeather, © 2016

See weather overviewHow to use our weather pages